ONEWEB-0212 (48791 NORAD) Tracking and Keplerian Element Data

This shows tracking and keplerian element data for the satellite.

Feedback or suggestion? Click here.




ElementValue
Catalog48791
NameONEWEB-0212
Epoch Orbit360
Epoch Day210.91668981
Epoch Year2021
RAAN255.8568
Inclination87.5945
Eccentricity0.0013034
Argument of Perigee44.2448
Mean Anonmoly80.5048
Mean Motion14.4967057
Decay Rate-0.01406139
L11 48791U 21045AA 21210.91668981 -.01406139 00000-0 -39186+0 0 9997
L22 48791 87.5945 255.8568 0013034 44.2448 80.5048 14.49670570 3602

Live tracking and technical data element details for ONEWEB-0212 (NORAD 48791). ONEWEB-0212 can be tracked NOW for your location showing map with azimuth and elevation plus other details from your city location.

Track the satellite on the map from your city or location and see movement details for azimuth, elevation, latitude, longitude, range, height, and movement on the map or in text.







IsCatalogInMostPopularTable: catalog: 48791, numindb: 17
Update: records affected: 1



GetName: 48791 ONEWEB-0212

Hit Count: updated at: Sat, 31 Jul 2021 16:11:35 GMT